OBJECT A, 62081

Orbit data source: Space-Track

You're viewing an Uncataloged Satellite

Recently launched and/or uncataloged satellites may have evolving metadata. Metadata may include but not limited to: Owner, Maufacturer, Bus, Motor, and Mission.

OBJECT A, 62081 is a satellite in SSO that was launched on Mon, 25 Nov 2024 UTC via an ELECTRON launch vehicle from the Rocket Lab Launch Complex (RLLC). Unknown objects in Earth's orbit typically refer to objects detected orbiting the Earth but have not yet been identified or cataloged. These objects could be anything from previously untracked satellites, spent rocket stages, debris from satellite collisions, or even natural meteoroids temporarily captured by Earth's gravity.

Loading next visibility...
OBJECT A details
Identifier
62081, 2024-219A
Orbit
SSO
Last TLE update5 hours ago
Origin
Flag of TBDKINEIS (TBD)
ManufacturerKINEIS
MissionOperational spacecraft
Bus & MotorCUBESAT 16U, Unknown motor
Mass28 kg wet, 28 kg dry
Launch date (UTC)
2024-11-25 (3 weeks ago)
Launch vehicle
ELECTRON
Launch site
Rocket Lab Launch Complex (RLLC)
Object typeUnknown
Shape & HBRUnknown
Radar Cross SectionMedium (>0.1 m² and <1 m²)

Expand to show TLE details & history

TLE from 5 hours ago
0 OBJECT A
1 62081U 24219A   24348.75433467  .00003582  00000-0  51447-3 0  9997
2 62081  97.9486 147.4363 0001563  10.3449 349.7793 14.77071685  2736
Epoch: 2024-12-13T18:06Z
Definitive object data (Epoch: 2024-12-13T18:06:14.515Z)
Latitude-0.00003°
Longitude152.96005°
Altitude640.519 km
Speed7.538 km/s
True Right ascension09h 49m 44s
True Declination0° 00' 00"
Sunlit
Object was in daylight at TLE epoch
Visualization TLE readout
Latitude19.14855°
Longitude150.39994°
Altitude640.023 km
Speed7.54 km/s
Apparent Right ascension09h 38m 03s
Apparent Declination-8° 47' 08"
Sunlit
Object is in full shadow
Visualization observer readout
Local Sidereal Time21:36:06
Azimuth359.065° N
Elevation-58.866°
Doppler factor1
Orbital elements
Apogee altitude636.726 km
Perigee altitude634.533 km
Semi-major axis7,013.767 km
Eccentricity0.0001563
Inclination97.9486°
RAAN147.4363°
Arg. of periapsis10.3449°
True anomaly349.77612°
Mean anomaly349.7793°
Eccentric anomaly349.77771°
Mean motion3.69501 °/min
BSTAR0.00051447
Orbital period97.43 mins
Loading maneuver chart data...
Loading historical data...
Loading historical data...
Loading historical data...
Loading historical data...
Loading historical data...
Loading historical data...
Loading historical data...

OBJECT A Visibility forecast

Observer location: undefined°, undefined

Span
Click to sort rows by Start time (UTC) header in descending order
Start Az.
Max El. time (UTC)
Max El. Az.
Max El.
End time (UTC)
End Az.
8 mins2024-12-13 23:33:05.806Z17.878° NNE2024-12-13 23:37:05.806Z137.958° SSE43.025°2024-12-13 23:41:05.806Z186.951° SSW
7 mins2024-12-14 10:30:05.806Z144.728° SSE2024-12-14 10:33:05.806Z61.456° ENE39.17°2024-12-14 10:37:05.806Z356.849° N
|